Weather History for Sussex, NJ

Change the Weather History Date:

Monday, June 9, 2014

  Actual Average Record
Temperature  
Mean Temperature 66 °F -  
Max Temperature 70 °F 79 °F 95 °F (2008)
Min Temperature 62 °F 52 °F 36 °F (1980)
Cooling Degree Days 1    
Growing Degree Days 16 (Base 50)    
Moisture  
Dew Point 62 °F    
Average Humidity 85    
Maximum Humidity 94    
Minimum Humidity 73    
Precipitation  
Precipitation 0.00 in - - ()
Sea Level Pressure  
Sea Level Pressure 29.94 in    
Wind  
Wind Speed 2 mph (NNE)    
Max Wind Speed 6 mph    
Max Gust Speed -    
Visibility 7 miles    
Events      
Averages and records for this station are not official NWS values.
T = Trace of Precipitation, MM = Missing Value Source: NWS Daily Summary

Daily Weather History Graph

Daily Weather History Graph

Search for Another Location

Airport:

Trip Planner

Search our weather history database for the weather conditions in past years. The results will help you decide how hot, cold, wet, or windy it might be!

Date:

Astronomy

Jun. 09, 2014 Rise Set
Actual Time 5:25 AM EDT 8:30 PM EDT
Civil Twilight 4:52 AM EDT 9:03 PM EDT
Nautical Twilight 4:09 AM EDT 9:46 PM EDT
Astronomical Twilight 3:18 AM EDT 10:37 PM EDT
Moon 4:46 PM EDT (6/9) 2:53 AM EDT (6/9)
Length of Visible Light 16h 11m
Length of Day
15h 04m
Waxing Gibbous, 85% of the Moon is Illuminated
Jun 9
Waxing Gibbous
Jun 13
Full
Jun 19
Last Quarter
Jun 27
New
Jul 5
First Quarter

Hourly Weather History & Observations

Time (EDT) Temp. Dew Point Humidity Pressure Visibility Wind Dir Wind Speed Gust Speed Precip Events Conditions
12:53 AM 68.0 °F 59.0 °F 73% 29.89 in 9.0 mi Calm Calm - N/A   Overcast
1:53 AM 66.0 °F 62.1 °F 87% 29.89 in 10.0 mi Calm Calm - N/A   Overcast
2:53 AM 66.0 °F 62.1 °F 87% 29.89 in 7.0 mi Calm Calm - N/A   Mostly Cloudy
3:53 AM 64.9 °F 59.0 °F 81% 29.91 in 5.0 mi SW 5.8 mph - N/A   Haze
4:10 AM 64.0 °F 59.0 °F 84% 29.92 in 2.0 mi Calm Calm - N/A   Haze
4:49 AM 62.6 °F 60.8 °F 94% 29.93 in 3.0 mi Calm Calm - N/A   Overcast
4:53 AM 63.0 °F 60.1 °F 90% 29.92 in 4.0 mi Calm Calm - N/A   Overcast
5:53 AM 64.0 °F 60.1 °F 87% 29.92 in 8.0 mi NNE 3.5 mph - N/A   Overcast
6:01 AM 64.0 °F 60.1 °F 87% 29.93 in 9.0 mi NNW 3.5 mph - N/A   Overcast
6:53 AM 64.9 °F 60.1 °F 84% 29.93 in 10.0 mi NNE 3.5 mph - N/A   Overcast
7:09 AM 64.9 °F 61.0 °F 87% 29.94 in 10.0 mi NNE 3.5 mph - N/A   Overcast
7:18 AM 64.9 °F 61.0 °F 87% 29.94 in 10.0 mi NNE 3.5 mph - N/A   Overcast
7:53 AM 66.0 °F 61.0 °F 84% 29.93 in 10.0 mi Calm Calm - N/A   Overcast
8:53 AM 66.0 °F 61.0 °F 84% 29.94 in 10.0 mi Calm Calm - N/A   Overcast
9:53 AM 66.9 °F 61.0 °F 81% 29.94 in 9.0 mi Calm Calm - N/A   Overcast
11:53 AM 69.1 °F 62.1 °F 78% 29.94 in 10.0 mi East 3.5 mph - N/A   Overcast
12:53 PM 70.0 °F 63.0 °F 78% 29.94 in 10.0 mi East 3.5 mph - N/A   Overcast
3:53 PM 68.0 °F 63.0 °F 84% 29.95 in 3.0 mi NNE 3.5 mph - N/A   Haze
4:53 PM 69.1 °F 63.0 °F 81% 29.95 in 8.0 mi NE 4.6 mph - N/A   Overcast
5:53 PM 69.1 °F 63.0 °F 81% 29.95 in 9.0 mi NNE 5.8 mph - N/A   Overcast
6:40 PM 68.0 °F 63.0 °F 84% 29.96 in 7.0 mi NNE 4.6 mph - N/A   Overcast
6:53 PM 68.0 °F 63.0 °F 84% 29.96 in 8.0 mi NNE 3.5 mph - N/A   Overcast
7:53 PM 68.0 °F 63.0 °F 84% 29.96 in 7.0 mi NNE 4.6 mph - N/A   Overcast
8:53 PM 66.9 °F 63.0 °F 87% 29.96 in 6.0 mi NE 3.5 mph - N/A   Overcast
9:01 PM 66.9 °F 63.0 °F 87% 29.97 in 5.0 mi NNE 3.5 mph - N/A   Overcast
9:53 PM 66.9 °F 63.0 °F 87% 29.96 in 5.0 mi NE 3.5 mph - N/A   Overcast
10:30 PM 66.9 °F 63.0 °F 87% 29.97 in 6.0 mi NNE 3.5 mph - N/A   Overcast
10:53 PM 66.9 °F 63.0 °F 87% 29.98 in 6.0 mi North 3.5 mph - N/A   Overcast
11:09 PM 66.9 °F 63.0 °F 87% 29.97 in 5.0 mi ENE 3.5 mph - N/A   Overcast
11:38 PM 66.9 °F 63.0 °F 87% 29.97 in 4.0 mi NNE 4.6 mph - N/A   Overcast
11:53 PM 66.0 °F 63.0 °F 90% 29.96 in 4.0 mi NNE 5.8 mph - N/A   Overcast